Check out our new BloomSky Weather System.

Active alerts


No alerts


Thunder radar  blitzortung!


Rain radar more information rain snow radar


Visit our other weather sites:

Template documentation
and downloads

And another site



Weather Underground History page Text

Daily Summary for June 18, 2017 Units:  English    Metric   Both
« Previous Day
Next Day »
Daily Weekly Monthly Yearly Custom
  High: Low: Average:
Temperature: 94.5 °F 78.6 °F 86.1 °F
Dew Point: 79.3 °F 74.1 °F 76.5 °F
Humidity: 92 % 53 % 75 %
Wind Speed: 13.0 mph 0.0 mph 4.8 mph
Wind Gust: 19.0 mph - -
Wind:- - SSE
Pressure: 29.84 in 29.70 in -
Precipitation: 0.00 in    
Historical Graphs
 
 
Tabular Data for June 18, 2017
Time Temperature Dew Point Pressure Wind Wind Speed Wind Gust Humidity Rainfall Rate (Hourly)
00:00 81.5 °F 76.3 °F 29.70 in SSW 13.0 mph 13.0 mph 84 % 0.00 in
00:05 81.3 °F 76.5 °F 29.70 in SSE 8.0 mph 19.0 mph 85 % 0.00 in
00:10 81.3 °F 76.5 °F 29.71 in South 7.0 mph 19.0 mph 85 % 0.00 in
00:15 81.3 °F 76.5 °F 29.72 in SSE 3.0 mph 19.0 mph 85 % 0.00 in
00:20 81.3 °F 76.6 °F 29.72 in SSE 6.0 mph 17.0 mph 86 % 0.00 in
00:25 81.3 °F 76.6 °F 29.72 in SSE 9.0 mph 17.0 mph 86 % 0.00 in
00:30 81.3 °F 76.6 °F 29.72 in South 6.0 mph 13.0 mph 86 % 0.00 in
00:35 81.3 °F 77.0 °F 29.72 in South 9.0 mph 16.0 mph 87 % 0.00 in
00:40 81.3 °F 77.0 °F 29.73 in SSE 3.0 mph 16.0 mph 87 % 0.00 in
00:45 81.3 °F 77.0 °F 29.73 in SSE 3.0 mph 16.0 mph 87 % 0.00 in
00:50 81.3 °F 77.0 °F 29.74 in South 4.0 mph 14.0 mph 87 % 0.00 in
00:55 81.1 °F 76.8 °F 29.74 in SSE 3.0 mph 14.0 mph 87 % 0.00 in
01:00 81.1 °F 76.8 °F 29.74 in SE 2.0 mph 14.0 mph 87 % 0.00 in
01:05 81.1 °F 76.8 °F 29.74 in South 6.0 mph 14.0 mph 87 % 0.00 in
01:10 81.1 °F 76.8 °F 29.73 in SSW 5.0 mph 11.0 mph 87 % 0.00 in
01:15 81.1 °F 76.8 °F 29.73 in SSE 7.0 mph 13.0 mph 87 % 0.00 in
01:16 81.1 °F 76.8 °F 29.73 in SE 6.0 mph 13.0 mph 87 % 0.00 in
01:21 81.1 °F 76.8 °F 29.73 in SSW 4.0 mph 13.0 mph 87 % 0.00 in
01:26 81.1 °F 76.8 °F 29.73 in SSE 2.0 mph 13.0 mph 87 % 0.00 in
01:31 81.1 °F 76.8 °F 29.73 in South 7.0 mph 12.0 mph 87 % 0.00 in
01:36 81.1 °F 76.8 °F 29.73 in SSE 11.0 mph 13.0 mph 87 % 0.00 in
01:41 81.1 °F 76.8 °F 29.73 in SSE 3.0 mph 14.0 mph 87 % 0.00 in
01:46 81.1 °F 76.8 °F 29.73 in South 6.0 mph 14.0 mph 87 % 0.00 in
01:51 81.0 °F 76.6 °F 29.73 in South 5.0 mph 14.0 mph 87 % 0.00 in
01:56 81.0 °F 76.6 °F 29.73 in South 3.0 mph 11.0 mph 87 % 0.00 in
02:01 81.0 °F 76.6 °F 29.73 in SE 4.0 mph 11.0 mph 87 % 0.00 in
02:06 80.8 °F 76.8 °F 29.73 in South 5.0 mph 11.0 mph 88 % 0.00 in
02:11 80.8 °F 76.8 °F 29.73 in South 4.0 mph 11.0 mph 88 % 0.00 in
02:16 80.8 °F 76.8 °F 29.73 in SSW 4.0 mph 10.0 mph 88 % 0.00 in
02:21 80.6 °F 76.6 °F 29.73 in SSE 5.0 mph 10.0 mph 88 % 0.00 in
02:26 80.6 °F 76.6 °F 29.73 in SSW 8.0 mph 9.0 mph 88 % 0.00 in
02:31 80.8 °F 76.8 °F 29.73 in SW 3.0 mph 11.0 mph 88 % 0.00 in
02:36 80.6 °F 76.6 °F 29.74 in SSE 9.0 mph 11.0 mph 88 % 0.00 in
02:41 80.4 °F 76.5 °F 29.74 in SSW 4.0 mph 11.0 mph 88 % 0.00 in
02:46 80.4 °F 76.5 °F 29.74 in South 4.0 mph 9.0 mph 88 % 0.00 in
02:51 80.4 °F 76.5 °F 29.74 in SW 5.0 mph 10.0 mph 88 % 0.00 in
02:56 80.4 °F 76.5 °F 29.75 in East 7.0 mph 10.0 mph 88 % 0.00 in
03:01 80.4 °F 76.5 °F 29.74 in SSW 6.0 mph 10.0 mph 88 % 0.00 in
03:06 80.2 °F 76.3 °F 29.74 in South 6.0 mph 9.0 mph 88 % 0.00 in
03:11 80.2 °F 76.3 °F 29.74 in SSW 5.0 mph 9.0 mph 88 % 0.00 in
03:16 80.4 °F 76.5 °F 29.74 in South 2.0 mph 11.0 mph 88 % 0.00 in
03:21 80.4 °F 76.5 °F 29.75 in SSE 4.0 mph 11.0 mph 88 % 0.00 in
03:23 80.4 °F 76.5 °F 29.75 in South 2.0 mph 11.0 mph 88 % 0.00 in
03:28 80.4 °F 76.5 °F 29.75 in SSW 1.0 mph 11.0 mph 88 % 0.00 in
03:33 80.4 °F 76.8 °F 29.75 in South 3.0 mph 7.0 mph 89 % 0.00 in
03:38 80.4 °F 76.5 °F 29.75 in South 4.0 mph 6.0 mph 88 % 0.00 in
03:43 80.4 °F 76.5 °F 29.75 in SSW 4.0 mph 6.0 mph 88 % 0.00 in
03:48 80.4 °F 76.5 °F 29.76 in SSW 4.0 mph 7.0 mph 88 % 0.00 in
03:53 80.4 °F 76.5 °F 29.76 in South 2.0 mph 7.0 mph 88 % 0.00 in
03:58 80.4 °F 76.5 °F 29.76 in SSE 2.0 mph 7.0 mph 88 % 0.00 in
04:03 80.4 °F 76.5 °F 29.76 in ESE 3.0 mph 7.0 mph 88 % 0.00 in
04:08 80.4 °F 76.8 °F 29.76 in SE 1.0 mph 8.0 mph 89 % 0.00 in
04:13 80.2 °F 76.6 °F 29.76 in SE 3.0 mph 8.0 mph 89 % 0.00 in
04:18 80.2 °F 76.6 °F 29.76 in SSE 1.0 mph 8.0 mph 89 % 0.00 in
04:23 80.2 °F 76.6 °F 29.76 in SE 1.0 mph 6.0 mph 89 % 0.00 in
04:24 80.2 °F 76.6 °F 29.76 in Calm   6.0 mph 89 % 0.00 in
04:29 80.1 °F 76.5 °F 29.76 in South 3.0 mph 6.0 mph 89 % 0.00 in
04:34 80.1 °F 76.5 °F 29.77 in East 5.0 mph 5.0 mph 89 % 0.00 in
04:39 80.1 °F 76.5 °F 29.77 in SSE 2.0 mph 6.0 mph 89 % 0.00 in
04:44 80.1 °F 76.5 °F 29.77 in South 2.0 mph 6.0 mph 89 % 0.00 in
04:49 80.1 °F 76.5 °F 29.77 in SSE 2.0 mph 6.0 mph 89 % 0.00 in
04:54 80.1 °F 76.5 °F 29.77 in SE 2.0 mph 5.0 mph 89 % 0.00 in
04:59 80.1 °F 76.5 °F 29.77 in SE 2.0 mph 5.0 mph 89 % 0.00 in
05:04 79.9 °F 76.3 °F 29.77 in SE 2.0 mph 5.0 mph 89 % 0.00 in
05:09 79.9 °F 76.3 °F 29.78 in SSE 1.0 mph 5.0 mph 89 % 0.00 in
05:14 79.9 °F 76.3 °F 29.78 in SSW 2.0 mph 5.0 mph 89 % 0.00 in
05:19 79.7 °F 76.5 °F 29.78 in SSE 3.0 mph 5.0 mph 90 % 0.00 in
05:24 79.5 °F 76.3 °F 29.78 in SSE 1.0 mph 4.0 mph 90 % 0.00 in
05:29 79.5 °F 76.3 °F 29.78 in Calm   4.0 mph 90 % 0.00 in
05:34 79.3 °F 76.1 °F 29.78 in Calm   4.0 mph 90 % 0.00 in
05:39 79.3 °F 76.1 °F 29.78 in ESE 1.0 mph 3.0 mph 90 % 0.00 in
05:44 79.3 °F 76.1 °F 29.78 in ESE 4.0 mph 4.0 mph 90 % 0.00 in
05:49 79.2 °F 76.3 °F 29.78 in ESE 2.0 mph 4.0 mph 91 % 0.00 in
05:54 79.2 °F 76.3 °F 29.78 in SE 3.0 mph 4.0 mph 91 % 0.00 in
05:59 79.0 °F 76.1 °F 29.78 in SE 2.0 mph 5.0 mph 91 % 0.00 in
06:05 79.0 °F 76.1 °F 29.78 in East 2.0 mph 5.0 mph 91 % 0.00 in
06:10 79.0 °F 76.1 °F 29.78 in ESE 2.0 mph 5.0 mph 91 % 0.00 in
06:15 78.8 °F 75.9 °F 29.78 in ESE 1.0 mph 5.0 mph 91 % 0.00 in
06:20 78.6 °F 75.7 °F 29.79 in Calm   5.0 mph 91 % 0.00 in
06:25 78.6 °F 76.1 °F 29.79 in ESE 2.0 mph 4.0 mph 92 % 0.00 in
06:30 78.6 °F 76.1 °F 29.79 in ESE 2.0 mph 3.0 mph 92 % 0.00 in
06:35 78.6 °F 76.1 °F 29.79 in SE 1.0 mph 4.0 mph 92 % 0.00 in
06:40 78.6 °F 76.1 °F 29.78 in ESE 2.0 mph 5.0 mph 92 % 0.00 in
06:45 78.6 °F 76.1 °F 29.79 in ESE 2.0 mph 5.0 mph 92 % 0.00 in
06:46 78.6 °F 76.1 °F 29.78 in Calm   5.0 mph 92 % 0.00 in
06:51 78.6 °F 76.1 °F 29.78 in SSE 1.0 mph 5.0 mph 92 % 0.00 in
06:56 78.6 °F 76.1 °F 29.79 in South 1.0 mph 4.0 mph 92 % 0.00 in
07:01 78.8 °F 76.3 °F 29.79 in SE 2.0 mph 4.0 mph 92 % 0.00 in
07:06 79.0 °F 76.5 °F 29.79 in South 3.0 mph 4.0 mph 92 % 0.00 in
07:11 79.3 °F 76.5 °F 29.79 in SSE 3.0 mph 5.0 mph 91 % 0.00 in
07:16 79.7 °F 76.8 °F 29.79 in South 4.0 mph 5.0 mph 91 % 0.00 in
07:21 80.1 °F 76.8 °F 29.79 in SSE 2.0 mph 5.0 mph 90 % 0.00 in
07:26 80.2 °F 77.0 °F 29.79 in SE 3.0 mph 5.0 mph 90 % 0.00 in
07:31 80.6 °F 77.0 °F 29.79 in South 1.0 mph 5.0 mph 89 % 0.00 in
07:36 81.0 °F 77.4 °F 29.79 in SE 3.0 mph 6.0 mph 89 % 0.00 in
07:41 81.1 °F 77.2 °F 29.79 in SE 5.0 mph 6.0 mph 88 % 0.00 in
07:46 81.5 °F 77.2 °F 29.79 in SE 4.0 mph 6.0 mph 87 % 0.00 in
07:51 81.7 °F 77.4 °F 29.79 in SE 7.0 mph 8.0 mph 87 % 0.00 in
07:56 81.9 °F 77.5 °F 29.79 in SSE 3.0 mph 8.0 mph 87 % 0.00 in
08:01 82.2 °F 77.9 °F 29.80 in SSE 3.0 mph 8.0 mph 87 % 0.00 in
08:06 82.8 °F 78.1 °F 29.80 in South 5.0 mph 9.0 mph 86 % 0.00 in
08:09 82.8 °F 77.7 °F 29.80 in South 4.0 mph 9.0 mph 85 % 0.00 in
08:14 83.1 °F 77.7 °F 29.80 in East 4.0 mph 9.0 mph 84 % 0.00 in
08:19 83.5 °F 78.1 °F 29.80 in SSE 5.0 mph 10.0 mph 84 % 0.00 in
08:24 83.7 °F 77.9 °F 29.80 in SW 9.0 mph 10.0 mph 83 % 0.00 in
08:29 83.8 °F 78.1 °F 29.80 in SSW 5.0 mph 12.0 mph 83 % 0.00 in
08:34 83.8 °F 77.7 °F 29.81 in SSE 5.0 mph 12.0 mph 82 % 0.00 in
08:39 84.0 °F 77.9 °F 29.81 in SSE 9.0 mph 13.0 mph 82 % 0.00 in
08:44 84.0 °F 77.9 °F 29.81 in South 9.0 mph 13.0 mph 82 % 0.00 in
08:49 84.2 °F 78.1 °F 29.82 in SSE 6.0 mph 13.0 mph 82 % 0.00 in
08:54 84.6 °F 78.1 °F 29.82 in WSW 6.0 mph 13.0 mph 81 % 0.00 in
08:59 84.9 °F 78.1 °F 29.82 in SSW 1.0 mph 13.0 mph 80 % 0.00 in
09:04 85.6 °F 78.4 °F 29.82 in SSW 4.0 mph 13.0 mph 79 % 0.00 in
09:09 85.8 °F 77.7 °F 29.83 in SSE 10.0 mph 11.0 mph 77 % 0.00 in
09:14 85.8 °F 78.1 °F 29.83 in SSW 5.0 mph 14.0 mph 78 % 0.00 in
09:19 85.8 °F 77.7 °F 29.83 in SW 4.0 mph 14.0 mph 77 % 0.00 in
09:24 85.6 °F 77.2 °F 29.83 in SSW 7.0 mph 14.0 mph 76 % 0.00 in
09:29 85.5 °F 77.0 °F 29.82 in South 5.0 mph 11.0 mph 76 % 0.00 in
09:34 85.5 °F 77.4 °F 29.82 in SSE 8.0 mph 11.0 mph 77 % 0.00 in
09:39 85.8 °F 77.7 °F 29.81 in South 4.0 mph 11.0 mph 77 % 0.00 in
09:44 86.2 °F 78.1 °F 29.81 in South 7.0 mph 11.0 mph 77 % 0.00 in
09:49 85.8 °F 77.0 °F 29.81 in WNW 3.0 mph 11.0 mph 75 % 0.00 in
09:51 86.0 °F 77.9 °F 29.81 in SW 3.0 mph 14.0 mph 77 % 0.00 in
09:56 86.7 °F 77.4 °F 29.81 in SSW 5.0 mph 14.0 mph 74 % 0.00 in
10:01 87.1 °F 77.7 °F 29.81 in SSW 4.0 mph 14.0 mph 74 % 0.00 in
10:06 86.9 °F 77.2 °F 29.82 in SSE 6.0 mph 13.0 mph 73 % 0.00 in
10:11 86.7 °F 77.0 °F 29.82 in SSE 3.0 mph 13.0 mph 73 % 0.00 in
10:16 87.1 °F 77.4 °F 29.82 in South 6.0 mph 12.0 mph 73 % 0.00 in
10:21 87.6 °F 77.0 °F 29.83 in SSE 6.0 mph 12.0 mph 71 % 0.00 in
10:26 87.6 °F 77.0 °F 29.83 in SSE 4.0 mph 15.0 mph 71 % 0.00 in
10:31 87.8 °F 77.2 °F 29.83 in SE 3.0 mph 15.0 mph 71 % 0.00 in
10:36 88.2 °F 77.2 °F 29.84 in SSE 7.0 mph 15.0 mph 70 % 0.00 in
10:41 87.4 °F 76.5 °F 29.84 in SE 4.0 mph 8.0 mph 70 % 0.00 in
10:46 87.4 °F 76.8 °F 29.84 in South 5.0 mph 8.0 mph 71 % 0.00 in
10:56 88.5 °F 77.9 °F 29.83 in South 3.0 mph 8.0 mph 71 % 0.00 in
11:01 88.9 °F 77.0 °F 29.83 in SSW 8.0 mph 10.0 mph 68 % 0.00 in
11:06 88.5 °F 77.9 °F 29.83 in SSE 3.0 mph 10.0 mph 71 % 0.00 in
11:11 89.2 °F 77.4 °F 29.83 in South 6.0 mph 10.0 mph 68 % 0.00 in
11:16 89.2 °F 77.4 °F 29.83 in SSW 8.0 mph 10.0 mph 68 % 0.00 in
11:21 89.4 °F 78.3 °F 29.83 in SSW 6.0 mph 10.0 mph 70 % 0.00 in
11:26 90.0 °F 79.3 °F 29.83 in SSE 4.0 mph 11.0 mph 71 % 0.00 in
11:31 90.3 °F 77.9 °F 29.82 in SSW 5.0 mph 11.0 mph 67 % 0.00 in
11:36 90.7 °F 77.7 °F 29.82 in SSW 5.0 mph 12.0 mph 66 % 0.00 in
11:41 90.7 °F 77.4 °F 29.82 in SW 11.0 mph 12.0 mph 65 % 0.00 in
11:46 90.1 °F 77.2 °F 29.82 in SSE 4.0 mph 12.0 mph 66 % 0.00 in
11:51 90.7 °F 76.3 °F 29.82 in South 4.0 mph 12.0 mph 63 % 0.00 in
11:57 91.0 °F 77.5 °F 29.83 in ESE 4.0 mph 12.0 mph 65 % 0.00 in
12:02 91.6 °F 76.3 °F 29.83 in SE 4.0 mph 11.0 mph 61 % 0.00 in
12:07 91.4 °F 76.5 °F 29.83 in SSW 7.0 mph 12.0 mph 62 % 0.00 in
12:12 91.2 °F 76.3 °F 29.83 in SE 6.0 mph 12.0 mph 62 % 0.00 in
12:17 91.0 °F 75.7 °F 29.83 in ENE 3.0 mph 12.0 mph 61 % 0.00 in
12:22 91.0 °F 75.7 °F 29.84 in SSE 5.0 mph 11.0 mph 61 % 0.00 in
12:27 91.6 °F 76.3 °F 29.84 in SSE 6.0 mph 11.0 mph 61 % 0.00 in
12:32 91.2 °F 75.9 °F 29.84 in SSE 5.0 mph 11.0 mph 61 % 0.00 in
12:37 91.4 °F 76.5 °F 29.84 in SSW 4.0 mph 10.0 mph 62 % 0.00 in
12:42 91.4 °F 76.5 °F 29.84 in WSW 3.0 mph 10.0 mph 62 % 0.00 in
12:47 91.9 °F 76.6 °F 29.84 in East 4.0 mph 7.0 mph 61 % 0.00 in
12:52 92.3 °F 76.8 °F 29.84 in SSE 5.0 mph 15.0 mph 61 % 0.00 in
12:57 92.7 °F 76.3 °F 29.84 in SSE 2.0 mph 15.0 mph 59 % 0.00 in
13:02 93.2 °F 76.6 °F 29.84 in ESE 11.0 mph 15.0 mph 59 % 0.00 in
13:07 92.5 °F 75.6 °F 29.83 in South 6.0 mph 15.0 mph 58 % 0.00 in
13:12 92.7 °F 76.3 °F 29.83 in ESE 6.0 mph 15.0 mph 59 % 0.00 in
13:17 93.0 °F 76.6 °F 29.83 in South 5.0 mph 15.0 mph 59 % 0.00 in
13:22 93.7 °F 76.3 °F 29.83 in South 7.0 mph 10.0 mph 57 % 0.00 in
13:27 93.7 °F 75.7 °F 29.83 in East 4.0 mph 11.0 mph 56 % 0.00 in
13:32 93.7 °F 75.7 °F 29.83 in SE 6.0 mph 13.0 mph 56 % 0.00 in
13:37 94.1 °F 75.9 °F 29.83 in SSE 7.0 mph 13.0 mph 56 % 0.00 in
13:42 93.7 °F 75.7 °F 29.83 in SSE 6.0 mph 13.0 mph 56 % 0.00 in
13:47 93.6 °F 75.0 °F 29.82 in SSW 3.0 mph 9.0 mph 55 % 0.00 in
13:52 93.9 °F 75.2 °F 29.82 in South 5.0 mph 8.0 mph 55 % 0.00 in
13:57 93.6 °F 75.0 °F 29.82 in ESE 4.0 mph 13.0 mph 55 % 0.00 in
14:02 94.1 °F 75.9 °F 29.81 in SSE 7.0 mph 13.0 mph 56 % 0.00 in
14:07 94.3 °F 75.6 °F 29.81 in South 4.0 mph 13.0 mph 55 % 0.00 in
14:12 94.1 °F 74.3 °F 29.81 in SE 5.0 mph 12.0 mph 53 % 0.00 in
14:17 94.3 °F 74.5 °F 29.80 in South 5.0 mph 13.0 mph 53 % 0.00 in
14:22 94.3 °F 75.6 °F 29.79 in South 9.0 mph 13.0 mph 55 % 0.00 in
14:27 94.3 °F 75.0 °F 29.79 in SSE 6.0 mph 13.0 mph 54 % 0.00 in
14:32 94.5 °F 75.7 °F 29.79 in SSE 4.0 mph 11.0 mph 55 % 0.00 in
14:37 94.5 °F 75.2 °F 29.79 in South 7.0 mph 11.0 mph 54 % 0.00 in
14:42 94.5 °F 75.2 °F 29.78 in SSE 9.0 mph 11.0 mph 54 % 0.00 in
14:47 93.9 °F 74.7 °F 29.78 in SSE 10.0 mph 14.0 mph 54 % 0.00 in
14:52 93.6 °F 75.6 °F 29.78 in East 8.0 mph 16.0 mph 56 % 0.00 in
14:57 93.9 °F 74.7 °F 29.78 in SE 10.0 mph 16.0 mph 54 % 0.00 in
15:02 93.9 °F 75.2 °F 29.77 in SE 7.0 mph 16.0 mph 55 % 0.00 in
15:07 94.3 °F 75.6 °F 29.77 in ESE 9.0 mph 13.0 mph 55 % 0.00 in
15:12 93.9 °F 74.1 °F 29.77 in SE 9.0 mph 12.0 mph 53 % 0.00 in
15:17 93.9 °F 74.7 °F 29.77 in SSE 7.0 mph 14.0 mph 54 % 0.00 in
15:22 94.3 °F 75.0 °F 29.77 in South 4.0 mph 14.0 mph 54 % 0.00 in
15:27 94.3 °F 75.0 °F 29.77 in South 5.0 mph 14.0 mph 54 % 0.00 in
15:32 94.3 °F 76.6 °F 29.77 in SE 6.0 mph 13.0 mph 57 % 0.00 in
15:37 94.1 °F 75.4 °F 29.77 in SSE 8.0 mph 13.0 mph 55 % 0.00 in
15:42 94.1 °F 75.9 °F 29.77 in WSW 4.0 mph 13.0 mph 56 % 0.00 in
15:47 93.9 °F 75.7 °F 29.77 in South 4.0 mph 13.0 mph 56 % 0.00 in
15:52 93.7 °F 76.3 °F 29.77 in South 4.0 mph 13.0 mph 57 % 0.00 in
15:57 94.3 °F 76.6 °F 29.77 in ESE 5.0 mph 10.0 mph 57 % 0.00 in
16:02 94.3 °F 76.1 °F 29.77 in SE 5.0 mph 12.0 mph 56 % 0.00 in
16:07 93.9 °F 75.7 °F 29.77 in SE 6.0 mph 12.0 mph 56 % 0.00 in
16:12 93.9 °F 75.7 °F 29.77 in SE 7.0 mph 12.0 mph 56 % 0.00 in
16:18 93.7 °F 77.2 °F 29.77 in ESE 7.0 mph 10.0 mph 59 % 0.00 in
16:23 93.6 °F 76.1 °F 29.77 in ESE 9.0 mph 12.0 mph 57 % 0.00 in
16:28 93.7 °F 76.3 °F 29.77 in SE 7.0 mph 12.0 mph 57 % 0.00 in
16:33 94.1 °F 75.9 °F 29.77 in SE 8.0 mph 12.0 mph 56 % 0.00 in
16:38 93.9 °F 75.2 °F 29.77 in SSE 4.0 mph 12.0 mph 55 % 0.00 in
16:43 93.6 °F 75.6 °F 29.77 in SE 5.0 mph 12.0 mph 56 % 0.00 in
16:48 93.6 °F 76.6 °F 29.77 in South 9.0 mph 12.0 mph 58 % 0.00 in
16:53 93.7 °F 75.7 °F 29.77 in ESE 9.0 mph 11.0 mph 56 % 0.00 in
16:58 93.9 °F 75.7 °F 29.77 in East 6.0 mph 10.0 mph 56 % 0.00 in
17:03 94.3 °F 76.1 °F 29.77 in SSW 5.0 mph 10.0 mph 56 % 0.00 in
17:08 94.1 °F 75.4 °F 29.76 in SSE 3.0 mph 10.0 mph 55 % 0.00 in
17:13 94.3 °F 76.1 °F 29.76 in ESE 7.0 mph 11.0 mph 56 % 0.00 in
17:18 93.7 °F 76.3 °F 29.76 in SW 10.0 mph 14.0 mph 57 % 0.00 in
17:23 93.6 °F 76.1 °F 29.76 in SSE 6.0 mph 14.0 mph 57 % 0.00 in
17:28 93.6 °F 76.6 °F 29.76 in SSE 6.0 mph 14.0 mph 58 % 0.00 in
17:33 93.6 °F 76.6 °F 29.76 in SE 6.0 mph 12.0 mph 58 % 0.00 in
17:38 93.2 °F 76.3 °F 29.77 in WSW 4.0 mph 12.0 mph 58 % 0.00 in
17:43 92.8 °F 76.5 °F 29.77 in SSE 7.0 mph 12.0 mph 59 % 0.00 in
17:48 92.7 °F 76.3 °F 29.77 in SSE 5.0 mph 11.0 mph 59 % 0.00 in
17:53 92.7 °F 75.7 °F 29.77 in ESE 4.0 mph 11.0 mph 58 % 0.00 in
17:58 92.8 °F 75.9 °F 29.77 in SSW 4.0 mph 10.0 mph 58 % 0.00 in
18:03 92.7 °F 75.7 °F 29.77 in SSE 4.0 mph 10.0 mph 58 % 0.00 in
18:08 92.5 °F 75.6 °F 29.77 in South 8.0 mph 10.0 mph 58 % 0.00 in
18:13 92.3 °F 75.9 °F 29.77 in SE 5.0 mph 10.0 mph 59 % 0.00 in
18:18 92.1 °F 76.3 °F 29.77 in SSE 4.0 mph 11.0 mph 60 % 0.00 in
18:23 91.9 °F 76.6 °F 29.77 in SE 9.0 mph 11.0 mph 61 % 0.00 in
18:28 91.8 °F 76.8 °F 29.77 in South 7.0 mph 11.0 mph 62 % 0.00 in
18:33 91.6 °F 76.6 °F 29.76 in South 7.0 mph 11.0 mph 62 % 0.00 in
18:35 91.4 °F 76.5 °F 29.76 in SSW 7.0 mph 11.0 mph 62 % 0.00 in
18:40 91.0 °F 76.6 °F 29.76 in SE 6.0 mph 11.0 mph 63 % 0.00 in
18:45 90.9 °F 76.5 °F 29.77 in SE 9.0 mph 12.0 mph 63 % 0.00 in
18:50 90.9 °F 76.5 °F 29.77 in SE 5.0 mph 13.0 mph 63 % 0.00 in
18:55 90.7 °F 76.3 °F 29.77 in SE 4.0 mph 13.0 mph 63 % 0.00 in
19:00 90.3 °F 75.9 °F 29.77 in SE 7.0 mph 13.0 mph 63 % 0.00 in
19:05 90.1 °F 76.3 °F 29.77 in South 8.0 mph 13.0 mph 64 % 0.00 in
19:10 90.0 °F 76.6 °F 29.77 in SSE 3.0 mph 13.0 mph 65 % 0.00 in
19:15 89.8 °F 76.8 °F 29.78 in SSE 7.0 mph 13.0 mph 66 % 0.00 in
19:20 89.4 °F 76.6 °F 29.78 in South 8.0 mph 13.0 mph 66 % 0.00 in
19:25 89.2 °F 76.8 °F 29.78 in South 3.0 mph 13.0 mph 67 % 0.00 in
19:30 89.1 °F 76.6 °F 29.78 in South 6.0 mph 12.0 mph 67 % 0.00 in
19:35 88.9 °F 77.0 °F 29.78 in South 7.0 mph 14.0 mph 68 % 0.00 in
19:40 88.5 °F 76.6 °F 29.78 in South 6.0 mph 14.0 mph 68 % 0.00 in
19:45 88.3 °F 76.5 °F 29.78 in SSE 8.0 mph 14.0 mph 68 % 0.00 in
19:50 88.2 °F 76.3 °F 29.78 in SE 8.0 mph 14.0 mph 68 % 0.00 in
19:55 88.0 °F 76.1 °F 29.78 in SE 8.0 mph 13.0 mph 68 % 0.00 in
20:00 87.8 °F 76.3 °F 29.78 in SSE 3.0 mph 13.0 mph 69 % 0.00 in
20:05 87.6 °F 76.1 °F 29.79 in SE 6.0 mph 14.0 mph 69 % 0.00 in
20:10 87.4 °F 76.5 °F 29.79 in South 4.0 mph 14.0 mph 70 % 0.00 in
20:12 87.4 °F 76.5 °F 29.79 in South 7.0 mph 14.0 mph 70 % 0.00 in
20:17 87.1 °F 76.1 °F 29.79 in SE 5.0 mph 14.0 mph 70 % 0.00 in
20:22 86.7 °F 75.7 °F 29.79 in SE 8.0 mph 14.0 mph 70 % 0.00 in
20:27 86.5 °F 75.9 °F 29.79 in South 7.0 mph 14.0 mph 71 % 0.00 in
20:32 86.4 °F 75.9 °F 29.80 in SSE 7.0 mph 14.0 mph 71 % 0.00 in
20:37 86.2 °F 75.7 °F 29.80 in SSE 4.0 mph 11.0 mph 71 % 0.00 in
20:42 86.2 °F 75.7 °F 29.80 in SE 7.0 mph 12.0 mph 71 % 0.00 in
20:47 86.0 °F 75.6 °F 29.80 in SE 4.0 mph 12.0 mph 71 % 0.00 in
20:52 85.8 °F 75.7 °F 29.80 in SSW 4.0 mph 12.0 mph 72 % 0.00 in
20:57 85.6 °F 75.6 °F 29.80 in SSE 3.0 mph 12.0 mph 72 % 0.00 in
21:02 85.5 °F 75.7 °F 29.79 in SE 5.0 mph 12.0 mph 73 % 0.00 in
21:07 85.5 °F 75.7 °F 29.79 in SSW 4.0 mph 11.0 mph 73 % 0.00 in
21:12 85.3 °F 75.6 °F 29.79 in SSW 8.0 mph 10.0 mph 73 % 0.00 in
21:17 85.1 °F 75.9 °F 29.79 in SSE 4.0 mph 9.0 mph 74 % 0.00 in
21:22 84.9 °F 75.7 °F 29.79 in SE 5.0 mph 9.0 mph 74 % 0.00 in
21:27 84.9 °F 75.7 °F 29.80 in SE 3.0 mph 8.0 mph 74 % 0.00 in
21:32 84.7 °F 75.9 °F 29.80 in SSE 3.0 mph 8.0 mph 75 % 0.00 in
21:37 84.7 °F 75.9 °F 29.80 in SSE 5.0 mph 8.0 mph 75 % 0.00 in
21:42 84.7 °F 76.3 °F 29.80 in ESE 7.0 mph 8.0 mph 76 % 0.00 in
21:47 84.6 °F 76.5 °F 29.80 in SE 4.0 mph 9.0 mph 77 % 0.00 in
21:52 84.4 °F 76.8 °F 29.81 in SE 4.0 mph 9.0 mph 78 % 0.00 in
21:57 84.2 °F 76.6 °F 29.81 in ESE 7.0 mph 11.0 mph 78 % 0.00 in
22:02 84.0 °F 76.8 °F 29.81 in SSW 8.0 mph 11.0 mph 79 % 0.00 in
22:07 83.8 °F 76.6 °F 29.81 in ENE 4.0 mph 11.0 mph 79 % 0.00 in
22:12 83.8 °F 77.0 °F 29.81 in SSE 6.0 mph 10.0 mph 80 % 0.00 in
22:17 83.7 °F 76.8 °F 29.81 in SSW 4.0 mph 9.0 mph 80 % 0.00 in
22:22 83.7 °F 76.8 °F 29.82 in South 4.0 mph 9.0 mph 80 % 0.00 in
22:27 83.5 °F 77.0 °F 29.82 in SE 5.0 mph 9.0 mph 81 % 0.00 in
22:32 83.5 °F 77.0 °F 29.83 in East 11.0 mph 11.0 mph 81 % 0.00 in
22:37 83.5 °F 77.0 °F 29.83 in SSE 5.0 mph 11.0 mph 81 % 0.00 in
22:43 83.3 °F 76.8 °F 29.83 in SSW 2.0 mph 11.0 mph 81 % 0.00 in
22:48 83.1 °F 77.0 °F 29.83 in South 2.0 mph 11.0 mph 82 % 0.00 in
22:53 82.9 °F 76.8 °F 29.83 in SSW 3.0 mph 10.0 mph 82 % 0.00 in
22:58 82.9 °F 76.8 °F 29.83 in SSE 3.0 mph 6.0 mph 82 % 0.00 in
23:03 82.8 °F 76.6 °F 29.83 in SSE 2.0 mph 6.0 mph 82 % 0.00 in
23:08 82.8 °F 76.6 °F 29.83 in SE 3.0 mph 5.0 mph 82 % 0.00 in
23:13 82.6 °F 76.5 °F 29.84 in South 2.0 mph 5.0 mph 82 % 0.00 in
23:18 82.6 °F 76.5 °F 29.84 in SSE 3.0 mph 5.0 mph 82 % 0.00 in
23:23 82.6 °F 76.5 °F 29.84 in South 2.0 mph 9.0 mph 82 % 0.00 in
23:28 82.6 °F 76.5 °F 29.84 in SSE 4.0 mph 9.0 mph 82 % 0.00 in
23:33 82.6 °F 76.5 °F 29.84 in South 2.0 mph 9.0 mph 82 % 0.00 in
23:38 82.6 °F 76.5 °F 29.84 in SE 4.0 mph 7.0 mph 82 % 0.00 in
23:43 82.4 °F 76.3 °F 29.84 in SSE 3.0 mph 7.0 mph 82 % 0.00 in
23:48 82.2 °F 76.5 °F 29.84 in SE 3.0 mph 6.0 mph 83 % 0.00 in
23:53 82.4 °F 76.6 °F 29.84 in SSW 2.0 mph 7.0 mph 83 % 0.00 in
23:58 82.2 °F 76.5 °F 29.84 in South 2.0 mph 7.0 mph 83 % 0.00 in
Spring, Texas: Villages of Bridgestone
Compliments of Weather Underground - 2.75 mb

Script developed by  Jim McMurry - jmcmurry@mwt.net Adapted for the template by  Wim van der Kuil - Leuven-Template.eu

You find our weather info also at:

UK Metoffice

WeatherCloud

Weather Underground

Mid-South Weather Network

AWEKAS

Citizen Weather Observer Program (CWOP)

HAMweather, WeatherForYou, PWS Weather

Equipment we use:

Weather-station
Davis Vantage Vue

Weather-program
Meteohub

Weather-server
Debian 7.9 x86 (Guest)

Provider
DreamHost

Davis Vantage Vue

Meteohub

Debian 7.9 x86 (Guest)

DreamHost